Content
SEND FEEDBACK

Daily
Averages
Monthly
Summary
United States of America

SNYDER, TEXAS


Home > North America > United States > Texas
Elevation: 2427 feet     Latitude: 32 41N     Longitude: 100 57W

WEATHER
 
SELECT A DAY
Number of Records: 261,637;   Date Range: 7/8/03 - 4/15/14
 
SHARE

PRINT THIS DATA

[ ← Previous Day ]
WEATHER ALMANAC - JANUARY 3, 2013
[ Next Day → ]
[ °C ]   °F
Weather ElementAverageHighLow
Temperature33.6 °F39.2 °F (1:35 pm)23.5 °F (4:55 am)
Dewpoint21.4 °F25.9 °F (10:15 am)16.7 °F (10:55 pm)
Humidity62.7 %86 % (6:15 am)42 % (3:55 pm)
Barometer30.40 in30.45 in (10:35 am)30.33 in (12:35 am)
Wind Speed6.7 mph15 mph (8:35 am)
Weather ElementAverage
Visibility10 mi
Wind DirectionE (93.6 °)

Weather ElementTotal
Precipitation---
Heating Degree Days33.7 (Base 65)
Averaged from 69 records on January 3, 2013
WEATHER CONDITIONS BREAKOUT
WIND DIRECTION BREAKOUT
WEATHER BY HOUR - JANUARY 3, 2013
[ °C ]   °F
Local TimeTemperatureDewpointHumidityBarometerVisibilityWind DirectionWind SpeedGust SpeedPrecipitationEventsConditions
12:35 AM32.0 °F21.2 °F64 %30.33 in10.0 miNorth (10°)4.6 mphClear
12:55 AM30.7 °F20.3 °F65 %30.33 in10.0 miNNW (340°)8.1 mphClear
1:15 AM29.3 °F20.5 °F70 %30.34 in10.0 miNorth (10°)6.9 mphClear
1:35 AM29.5 °F19.9 °F68 %30.33 in10.0 miNorth (360°)10.4 mphClear
1:55 AM29.5 °F19.8 °F67 %30.33 in10.0 miNorth (10°)9.2 mphClear
2:15 AM29.3 °F20.5 °F70 %30.34 in10.0 miNorth (10°)6.9 mphClear
2:35 AM29.3 °F21.2 °F72 %30.34 in10.0 miNorth (360°)9.2 mphClear
2:55 AM29.3 °F21.7 °F73 %30.35 in10.0 miNNE (30°)3.5 mphClear
3:15 AM29.3 °F22.1 °F75 %30.35 in10.0 miNorth (10°)5.8 mphClear
3:35 AM27.5 °F20.8 °F76 %30.35 in10.0 miNNE (20°)6.9 mphClear
3:55 AM27.0 °F21.0 °F78 %30.36 in10.0 miNNE (20°)4.6 mphClear
4:15 AM26.4 °F20.8 °F79 %30.37 in10.0 miNorth (360°)6.9 mphClear
4:35 AM25.0 °F19.9 °F81 %30.37 in10.0 miNNW (340°)8.1 mphClear
4:55 AM23.5 °F19.0 °F83 %30.37 in10.0 miNorth (350°)6.9 mphClear
5:15 AM24.4 °F20.1 °F84 %30.37 in10.0 miNorth (350°)10.4 mphClear
5:35 AM24.4 °F20.3 °F84 %30.37 in10.0 miNorth (350°)10.4 mphClear
5:55 AM25.0 °F21.0 °F85 %30.38 in10.0 miNorth (350°)10.4 mphClear
6:15 AM25.9 °F22.1 °F86 %30.38 in10.0 miNorth (360°)10.4 mphClear
6:35 AM27.0 °F23.0 °F85 %30.38 in10.0 miNorth (360°)9.2 mphScattered Clouds
6:55 AM27.9 °F23.7 °F84 %30.38 in10.0 miNNE (20°)10.4 mphMostly Cloudy
7:35 AM29.3 °F24.4 °F82 %30.40 in10.0 miNorth (10°)8.1 mphOvercast
7:55 AM29.3 °F24.1 °F81 %30.40 in10.0 miNorth (10°)10.4 mphOvercast
8:15 AM29.3 °F23.9 °F80 %30.40 in10.0 miNorth (10°)12.7 mphOvercast
8:35 AM29.3 °F23.9 °F80 %30.40 in10.0 miNorth (10°)15.0 mphOvercast
8:55 AM29.3 °F23.7 °F80 %30.41 in10.0 miNNE (20°)12.7 mphOvercast
9:15 AM30.2 °F24.1 °F78 %30.43 in10.0 miNNE (30°)10.4 mphOvercast
9:35 AM30.7 °F24.1 °F76 %30.44 in10.0 miNNE (30°)10.4 mphOvercast
9:55 AM31.8 °F24.8 °F75 %30.44 in10.0 miNNE (30°)11.5 mphOvercast
10:15 AM33.6 °F25.9 °F73 %30.44 in10.0 miNNE (30°)11.5 mphOvercast
10:35 AM34.2 °F25.2 °F70 %30.45 in10.0 miNE (50°)11.5 mphOvercast
10:55 AM34.2 °F24.3 °F67 %30.45 in10.0 miNE (40°)10.4 mphOvercast
11:15 AM34.3 °F23.9 °F66 %30.45 in10.0 miNE (40°)8.1 mphOvercast
11:35 AM35.2 °F24.3 °F64 %30.45 in10.0 miNE (40°)8.1 mphOvercast
11:55 AM36.3 °F24.3 °F62 %30.44 in10.0 miNE (50°)11.5 mphOvercast
12:15 PM36.7 °F23.0 °F58 %30.42 in10.0 miNE (50°)11.5 mphOvercast
12:35 PM37.0 °F21.9 °F54 %30.41 in10.0 miNE (50°)8.1 mphMostly Cloudy
12:55 PM37.8 °F21.6 °F52 %30.41 in10.0 miENE (70°)8.1 mphScattered Clouds
1:15 PM39.0 °F21.6 °F50 %30.40 in10.0 miENE (60°)8.1 mphClear
1:35 PM39.2 °F20.3 °F47 %30.40 in10.0 miENE (70°)8.1 mphScattered Clouds
1:55 PM39.2 °F20.1 °F46 %30.40 in10.0 miNE (50°)5.8 mphScattered Clouds
2:15 PM39.2 °F19.6 °F45 %30.40 in10.0 miENE (60°)4.6 mphScattered Clouds
2:35 PM39.2 °F19.0 °F44 %30.41 in10.0 miEast (80°)4.6 mphClear
2:55 PM39.2 °F18.7 °F44 %30.40 in10.0 miEast (90°)4.6 mphScattered Clouds
3:15 PM39.2 °F18.1 °F43 %30.40 in10.0 miENE (70°)4.6 mphClear
3:55 PM39.2 °F17.8 °F42 %30.41 in10.0 miEast (100°)4.6 mphClear
4:15 PM39.2 °F18.1 °F43 %30.40 in10.0 miESE (110°)3.5 mphClear
4:35 PM39.2 °F18.1 °F43 %30.40 in10.0 miEast (100°)3.5 mphClear
4:55 PM39.2 °F18.3 °F43 %30.39 in10.0 miEast (100°)9.2 mphClear
5:15 PM39.2 °F19.2 °F45 %30.40 in10.0 miESE (120°)9.2 mphScattered Clouds
5:35 PM38.7 °F21.6 °F50 %30.40 in10.0 miESE (120°)8.1 mphOvercast
5:55 PM36.9 °F22.5 °F56 %30.40 in10.0 miESE (120°)6.9 mphOvercast
6:15 PM36.7 °F23.2 °F58 %30.39 in10.0 miEast (80°)5.8 mphOvercast
6:35 PM36.7 °F23.2 °F58 %30.40 in10.0 miEast (100°)4.6 mphOvercast
6:55 PM36.7 °F23.2 °F58 %30.40 in10.0 miEast (80°)3.5 mphOvercast
7:15 PM36.7 °F23.7 °F59 %30.40 in10.0 miEast (80°)3.5 mphOvercast
7:35 PM36.7 °F23.9 °F60 %30.40 in10.0 miCalmOvercast
7:55 PM36.7 °F24.1 °F60 %30.39 in10.0 miENE (70°)3.5 mphOvercast
8:15 PM36.7 °F24.3 °F61 %30.40 in10.0 miCalmOvercast
8:35 PM36.7 °F23.5 °F59 %30.41 in10.0 miCalmOvercast
8:55 PM36.7 °F23.0 °F58 %30.41 in10.0 miCalmOvercast
9:15 PM36.7 °F22.5 °F56 %30.42 in10.0 miCalmOvercast
9:35 PM36.7 °F19.9 °F51 %30.42 in10.0 miCalmMostly Cloudy
9:55 PM36.7 °F18.3 °F47 %30.43 in10.0 miCalmScattered Clouds
10:15 PM36.7 °F17.4 °F46 %30.43 in10.0 miNE (50°)3.5 mphClear
10:35 PM36.7 °F16.9 °F45 %30.42 in10.0 miNE (40°)4.6 mphClear
10:55 PM36.7 °F16.7 °F44 %30.42 in10.0 miNNE (30°)3.5 mphClear
11:15 PM36.7 °F16.9 °F45 %30.43 in10.0 miCalmClear
11:35 PM36.7 °F16.9 °F45 %30.42 in10.0 miNE (40°)3.5 mphClear
11:55 PM36.7 °F17.1 °F45 %30.42 in10.0 miNE (50°)4.6 mphClear
Hourly data recorded from KSNK, located 3.71 miles away from Snyder, Texas







STORIES FROM OUR PARTNERS